Back to catalog

DELTA 1 DEB

AliveUNKNOWN
NORAD 7037·DEBRIS·🇺🇸 United States

Launched Nov 6, 1973 from Vandenberg Space Force Base

Loading…

Next Passes (next 24 hours)

TLE

FreshSource: Space-Track

Epoch: Sep 14, 2026, 13:21 UTC

1 07037U 73086AD  26257.55642360 -.00000001  00000-0  46602-3 0  9997
2 07037 101.9935 290.5903 0322257  32.4876 119.3271 11.86626259288600

Track DELTA 1 DEB in real time with AllMySat

Download on the App Store